Погода в Плаке

Греция     35°27′08″N   24°12′38″E
темп.,
°C
ветер,
м/с
пор.,
м/с
влажн.,
%
обл.,
%
осадки,
мм/ч
давл.,
гПа
погр.,
м
16 мая, вс
вс1600:00+18зюз2364100 0.0 101166
03:00+18з47685 0.0 1010315
06:00+17з58679 0.0 1009463
09:00+19зсз7106518 0.0 1011670
12:00+20сз896720 0.0 1011631
15:00+20сз101263100 0.0 1011549
18:00+20зсз91164100 0.0 1011514
21:00+19з586823 0.0 1011362
17 мая, пн
пн1700:00+18зюз36675 0.0 1012332
03:00+17з46705 0.0 1011242
06:00+18з34670 0.0 1011197
09:00+19сз33690 0.0 1012217
12:00+20сз77720 0.0 1013327
15:00+22сз810580 0.0 1012322
18:00+22зсз58560 0.0 1011175
21:00+21з22632 0.0 101225
18 мая, вт
вт1800:00+21з12590 0.0 101220
03:00+21з12550 0.0 101120
06:00+21з34591 0.0 101139
09:00+23з12500 0.0 101283
12:00+23сз79560 0.0 1012271
15:00+23сз58571 0.0 1012296
18:00+24зсз46555 0.0 1011176
21:00+22зсз35630 0.0 101248
19 мая, ср
ср1900:00+21юз11633 0.0 101214
03:00+20вюв01625 0.0 101212
06:00+20зсз33640 0.0 101251
09:00+21сз34695 0.0 1013120
12:00+20ссз44760 0.0 1014190
15:00+21ссз34750 0.0 1013206
18:00+21сз35750 0.0 1012206
21:00+20ю23680 0.0 101256
20 мая, чт
чт2000:00+21з22500 0.0 101113
03:00+21з33460 0.0 101024
06:00+21з22491 0.0 101018
09:00+23сз34486 0.0 101196
12:00+23сз5756100 0.0 1011244
15:00+22сз566225 0.0 1010231
18:00+22сз46650 0.0 1010188
21:00+21з23710 0.0 101030